Wind_Speed
7 7 9 8 9 9 9 8 8 9 9 9 9 9 9 9 9 10 11 11 10 10 10 10 10 10 10 10 9 9 9 8 8 8 8 8 8 8 8 7 7 6 6
7 7 8 9 9 9 9 9 9 9 9 9 10 10 9 10 10 11 12 12 12 11 11 10 10 10 10 9 9 9 9 8 8 8 8 7 7 7 7 7 7 6 6
7 7 7 8 9 9 9 9 8 9 9 9 10 10 10 10 11 11 12 11 11 10 10 10 10 9 9 8 8 9 8 8 7 7 7 7 7 7 7 6 6 6 5
8 8 8 8 9 9 9 9 9 9 9 9 10 10 11 11 11 11 12 11 10 10 9 9 10 9 8 8 8 8 8 7 6 6 6 6 6 6 6 5 5 5 5
9 10 10 10 11 11 10 10 10 10 10 10 11 10 11 10 10 10 11 10 10 10 9 9 8 7 7 8 7 7 7 7 7 6 6 6 5 5 5 4 4 3 3
10 10 11 12 12 12 12 12 11 10 10 11 11 10 11 10 10 10 9 9 9 9 8 8 8 7 7 7 7 6 6 6 6 6 5 5 4 4 4 3 3 2 2
11 11 11 12 12 13 13 12 12 11 11 11 11 11 11 10 9 9 9 8 8 8 8 8 7 6 7 7 7 6 6 5 5 5 5 4 4 3 3 2 2 1 1
12 12 12 12 13 13 13 13 12 11 11 11 11 11 10 9 9 9 8 8 8 7 7 7 6 6 6 6 5 5 5 5 4 4 4 3 3 2 2 1 1 1 0
13 13 13 14 13 13 13 12 12 11 11 11 11 10 9 8 8 8 7 7 7 6 6 6 5 5 5 4 4 4 4 4 4 4 3 2 2 1 1 1 1 1 1
14 14 14 14 13 13 13 12 12 11 11 10 10 9 9 9 8 7 6 6 6 5 5 5 5 4 4 4 3 3 3 2 2 2 2 1 1 0 0 0 0 1 1
14 14 13 13 13 13 13 12 12 11 10 9 9 8 8 7 7 6 6 5 5 5 4 4 4 4 3 3 2 2 2 1 1 1 0 0 0 1 1 1 1 1 2
14 14 14 13 12 12 12 12 11 11 10 9 9 8 7 6 6 6 6 5 5 4 4 4 3 3 2 2 1 1 1 1 1 1 1 1 1 2 2 2 2 3 3
14 14 14 13 12 11 11 11 11 10 9 9 8 8 7 6 6 5 5 5 4 3 3 3 2 2 2 1 1 1 1 2 2 2 2 2 3 3 3 4 4 3 3
15 14 14 13 12 11 11 10 10 10 9 8 7 7 7 6 6 6 6 5 4 3 3 3 3 2 1 1 1 1 1 2 2 2 3 3 4 4 5 5 5 5 5
16 15 14 13 11 11 10 10 9 9 8 8 7 7 6 6 5 5 4 4 4 3 3 3 2 2 1 0 0 1 1 2 2 2 3 3 5 5 6 6 7 6 6
15 14 14 13 11 10 10 9 9 9 8 8 7 7 6 5 5 4 3 3 3 3 2 1 0 1 1 2 1 1 2 2 3 4 4 4 5 6 7 7 8 8 9
15 15 14 13 12 10 10 9 8 8 8 7 7 6 5 4 4 3 2 2 2 2 2 1 2 2 3 3 3 3 3 3 4 5 5 5 6 6 7 8 9 10 10
16 15 14 13 12 11 10 9 8 7 7 6 6 6 5 4 3 3 3 2 1 2 3 3 3 4 4 4 5 5 5 5 6 6 7 7 7 8 8 9 10 10 11
16 15 14 12 11 11 10 9 7 7 6 6 6 5 4 3 3 3 3 3 3 4 4 4 4 5 5 6 6 6 7 7 7 8 8 9 9 10 10 10 11 12 12
15 15 13 12 11 10 10 9 9 8 7 6 5 5 5 4 4 4 4 5 5 6 5 5 5 6 6 6 7 7 7 8 9 10 10 11 11 12 12 12 12 13 13
14 14 13 12 11 10 10 10 9 8 7 6 6 5 5 5 5 5 6 6 6 7 6 6 6 6 7 7 7 8 9 9 10 11 12 12 12 13 14 14 14 14 14
14 14 13 12 12 11 10 10 10 9 8 7 7 6 6 7 7 7 7 7 7 7 7 7 6 7 7 8 8 9 10 11 11 12 12 13 13 14 14 15 15 15 14
14 14 13 12 12 11 11 10 10 9 9 9 8 8 8 8 8 8 8 8 7 7 8 8 7 8 8 9 10 10 11 11 12 12 13 13 13 14 15 15 15 15 15
12 13 13 12 12 11 11 11 10 10 9 9 9 9 9 8 9 9 9 9 8 8 9 9 9 9 9 10 10 11 12 12 12 12 13 14 14 15 15 16 16 16 17
12 12 12 12 12 12 11 11 11 10 10 9 9 10 10 10 9 10 10 10 9 9 9 10 10 10 10 11 11 11 12 12 12 13 14 14 15 16 16 17 17 17 18
11 12 12 12 12 12 12 12 11 10 10 10 10 10 11 10 10 10 11 11 10 10 10 11 11 11 11 11 12 12 12 12 12 13 14 14 15 16 17 18 18 18 17
Wind_Direction
82 88 82 88 89 93 100 101 102 105 103 103 108 111 109 114 120 114 121 117 117 121 126 130 127 127 127 126 126 125 122 118 115 114 115 119 123 122 117 116 116 116 120
80 83 81 87 93 97 103 111 110 108 107 106 109 111 109 111 111 111 118 116 117 121 123 122 126 128 126 127 124 120 117 116 115 113 115 116 116 118 116 116 117 118 120
78 78 82 85 88 91 102 109 109 104 111 110 112 115 115 115 113 114 115 113 113 115 116 120 128 128 125 124 125 122 120 116 115 114 115 117 114 115 118 119 120 121 123
80 85 88 88 88 89 94 102 108 110 109 114 117 121 119 117 115 118 119 117 116 119 120 123 124 124 128 127 125 124 123 120 118 116 115 115 116 117 120 124 124 121 123
85 89 92 92 92 93 95 100 107 111 110 112 114 116 119 117 119 120 120 117 117 120 123 123 122 121 122 122 124 128 127 123 120 117 116 119 118 117 119 123 131 136 139
89 92 91 89 92 94 98 101 106 110 109 108 107 111 115 118 120 118 121 121 119 118 118 119 120 122 121 119 121 127 127 126 122 114 119 125 117 111 111 112 125 145 164
88 89 92 92 94 95 96 97 101 106 105 103 105 109 112 114 116 116 121 121 121 122 121 121 123 125 125 124 127 132 129 125 119 119 120 116 112 110 108 101 106 119 167
88 88 89 92 96 94 94 92 94 99 101 102 104 107 109 112 111 113 118 118 121 123 124 127 127 124 122 125 131 134 130 125 121 114 115 117 116 113 117 101 81 79 183
91 89 90 93 94 92 90 91 92 97 102 103 104 104 104 111 111 109 113 117 119 118 122 127 127 125 125 132 137 137 134 131 127 126 121 118 115 100 114 133 97 52 30
90 90 89 90 91 92 88 86 88 91 95 98 99 98 100 101 103 104 112 119 122 123 127 132 133 129 128 136 139 140 140 135 130 127 120 111 97 111 34 65 55 347 342
89 89 89 90 89 90 89 86 85 86 90 93 93 90 92 94 97 106 111 120 120 122 126 130 128 129 135 138 139 151 153 143 160 163 122 208 306 316 307 305 298 288 276
89 88 88 89 89 89 89 86 85 87 87 89 91 90 89 89 90 97 101 108 111 112 116 120 125 120 129 136 146 172 209 240 253 268 286 271 278 295 306 303 303 290 269
86 87 89 86 86 87 88 86 85 86 87 88 89 88 87 86 92 92 95 107 112 110 114 116 115 117 119 119 138 183 254 273 278 269 270 270 278 289 293 296 300 296 281
83 86 86 87 86 84 84 84 85 84 82 83 84 82 81 84 90 89 88 88 90 100 102 100 102 105 105 117 182 252 286 300 305 290 282 275 278 281 284 292 294 290 288
79 82 86 86 86 82 79 79 81 82 82 79 78 80 80 79 81 86 87 78 80 89 96 96 97 89 85 77 7 346 303 308 307 304 301 294 285 288 291 291 292 285 285
76 77 80 81 82 80 79 78 77 79 79 76 74 76 76 70 69 68 67 64 66 71 75 80 26 332 321 309 307 289 297 298 301 300 295 299 299 293 290 289 290 285 282
72 74 75 72 71 72 74 74 74 73 72 71 70 68 68 66 62 56 47 34 27 34 38 20 342 326 316 306 301 290 292 289 295 295 292 294 302 302 298 293 290 288 285
69 69 70 70 67 66 67 68 71 71 64 59 56 58 59 62 58 40 26 21 356 349 345 332 316 314 308 304 303 295 290 291 297 293 290 292 297 298 297 294 293 292 290
65 65 65 65 62 61 58 55 61 63 56 50 46 41 39 37 33 17 0 1 352 335 330 321 308 306 300 302 304 296 291 288 295 299 295 293 294 295 295 294 293 290 290
61 60 60 59 59 57 57 51 54 55 53 47 35 27 20 13 7 355 343 334 328 324 323 317 312 309 304 300 301 298 294 294 292 295 296 294 292 293 293 294 292 291 289
58 57 57 57 57 56 54 51 49 46 44 36 25 21 15 3 351 341 336 326 322 322 322 312 310 306 301 302 302 301 299 298 295 293 294 291 291 291 292 293 295 292 291
57 56 54 54 55 56 54 49 46 40 34 27 19 14 8 1 354 344 338 328 323 325 327 320 309 302 297 300 300 299 303 303 298 297 296 294 293 291 292 292 296 297 294
55 54 53 53 55 53 50 46 41 35 31 25 21 13 6 359 353 344 339 333 328 326 320 316 307 301 297 300 303 305 304 302 300 301 301 297 294 293 293 294 297 295 293
51 50 50 51 51 49 45 41 37 32 27 22 17 11 4 356 351 351 346 341 335 330 326 317 310 304 302 304 306 306 307 305 303 301 301 301 299 296 294 295 294 294 294
46 47 46 46 46 42 37 32 29 26 23 19 14 9 6 359 353 352 348 344 338 334 330 322 316 308 303 303 304 305 308 309 308 304 303 303 302 298 295 295 296 295 293
41 42 42 42 41 37 33 27 23 19 17 14 10 7 5 2 358 355 350 349 344 338 331 325 321 316 308 304 303 303 306 309 309 308 308 307 305 301 298 296 296 295 293
Height
5861 5860 5859 5859 5860 5860 5860 5861 5862 5862 5863 5864 5865 5866 5866 5867 5868 5869 5870 5871 5872 5873 5874 5875 5876 5877 5879 5880 5881 5881 5882 5883 5884 5885 5885 5886 5886 5887 5887 5888 5888 5889 5889
5862 5861 5860 5860 5861 5861 5861 5862 5862 5863 5865 5865 5866 5867 5868 5869 5870 5870 5871 5873 5873 5875 5876 5876 5877 5879 5880 5881 5882 5883 5883 5884 5885 5886 5886 5887 5887 5887 5888 5888 5889 5889 5890
5863 5862 5862 5862 5862 5863 5863 5863 5864 5865 5866 5867 5868 5869 5870 5871 5872 5872 5873 5874 5875 5876 5877 5878 5879 5880 5881 5882 5883 5884 5885 5885 5886 5887 5887 5888 5888 5888 5889 5889 5890 5890 5890
5864 5863 5863 5863 5863 5864 5864 5865 5866 5866 5868 5868 5870 5870 5871 5873 5874 5874 5875 5876 5877 5878 5879 5880 5881 5882 5883 5884 5884 5885 5886 5886 5887 5888 5888 5888 5889 5889 5890 5890 5891 5891 5891
5866 5865 5865 5864 5864 5865 5865 5866 5867 5868 5869 5870 5871 5872 5873 5874 5875 5876 5877 5878 5879 5880 5881 5882 5882 5883 5884 5885 5886 5886 5887 5887 5888 5888 5889 5889 5890 5890 5890 5891 5891 5892 5892
5867 5867 5866 5866 5867 5867 5867 5868 5869 5870 5871 5872 5873 5873 5874 5875 5877 5878 5878 5879 5880 5881 5882 5883 5884 5885 5885 5886 5887 5888 5888 5888 5889 5889 5889 5890 5890 5891 5891 5891 5891 5892 5892
5869 5869 5869 5868 5869 5869 5870 5870 5871 5872 5873 5874 5875 5876 5876 5877 5878 5879 5880 5881 5882 5883 5883 5884 5885 5886 5887 5887 5888 5888 5889 5889 5889 5890 5890 5890 5891 5891 5891 5891 5892 5892 5892
5871 5871 5871 5870 5871 5872 5872 5873 5873 5874 5875 5876 5877 5877 5878 5879 5879 5880 5881 5882 5883 5884 5885 5886 5887 5887 5888 5889 5889 5889 5890 5890 5890 5890 5891 5891 5891 5891 5891 5892 5892 5892 5892
5873 5873 5873 5873 5873 5874 5875 5875 5876 5876 5877 5878 5878 5879 5880 5880 5881 5882 5883 5884 5884 5885 5886 5886 5887 5888 5889 5889 5890 5890 5891 5891 5891 5891 5891 5891 5891 5891 5891 5891 5892 5892 5892
5876 5876 5876 5876 5876 5877 5877 5878 5878 5879 5879 5880 5880 5881 5881 5882 5883 5884 5884 5885 5885 5886 5887 5887 5888 5889 5889 5890 5890 5891 5891 5891 5891 5891 5891 5891 5891 5891 5891 5891 5892 5892 5892
5878 5878 5879 5879 5879 5879 5880 5880 5881 5881 5881 5882 5882 5883 5883 5884 5884 5885 5885 5886 5886 5887 5887 5888 5888 5889 5890 5890 5891 5891 5891 5892 5892 5892 5892 5891 5891 5891 5891 5891 5891 5891 5891
5881 5881 5881 5881 5882 5882 5882 5883 5883 5883 5883 5884 5884 5884 5885 5885 5886 5886 5887 5887 5887 5888 5888 5888 5889 5889 5890 5890 5891 5891 5891 5892 5892 5892 5891 5891 5891 5891 5891 5891 5891 5891 5890
5883 5883 5883 5884 5884 5884 5884 5885 5885 5885 5885 5885 5886 5886 5886 5887 5887 5888 5888 5888 5888 5889 5889 5889 5889 5890 5890 5890 5891 5891 5891 5891 5892 5891 5891 5891 5891 5891 5890 5890 5890 5890 5890
5886 5886 5886 5886 5887 5887 5887 5887 5887 5887 5887 5888 5888 5888 5888 5888 5889 5889 5888 5888 5889 5889 5890 5890 5890 5890 5891 5891 5890 5891 5891 5891 5891 5891 5891 5891 5890 5890 5890 5890 5889 5889 5889
5889 5889 5889 5889 5889 5889 5889 5889 5889 5889 5889 5889 5889 5889 5889 5890 5890 5890 5890 5890 5890 5890 5890 5890 5891 5891 5891 5891 5891 5891 5891 5891 5891 5891 5890 5890 5890 5889 5889 5889 5888 5888 5888
5892 5892 5891 5891 5891 5891 5891 5891 5891 5891 5891 5891 5891 5890 5890 5891 5891 5891 5891 5891 5891 5891 5891 5891 5891 5891 5891 5891 5891 5890 5890 5890 5890 5890 5889 5889 5889 5888 5888 5888 5887 5887 5886
5894 5894 5894 5894 5894 5893 5893 5893 5893 5893 5892 5892 5892 5892 5892 5891 5891 5891 5891 5891 5891 5891 5891 5891 5891 5890 5890 5890 5890 5890 5890 5889 5889 5889 5888 5888 5888 5887 5887 5886 5886 5885 5884
5897 5897 5896 5896 5896 5895 5895 5895 5894 5894 5894 5893 5893 5893 5893 5892 5892 5892 5892 5891 5891 5891 5891 5890 5890 5890 5890 5890 5889 5889 5889 5888 5888 5888 5887 5887 5886 5886 5885 5884 5884 5883 5882
5900 5899 5899 5898 5898 5897 5897 5896 5896 5895 5895 5895 5894 5894 5893 5893 5893 5893 5892 5892 5891 5891 5890 5890 5890 5889 5889 5889 5888 5888 5888 5887 5887 5886 5886 5885 5884 5884 5883 5882 5881 5880 5880
5903 5902 5901 5900 5900 5899 5899 5898 5897 5897 5896 5896 5895 5894 5894 5893 5893 5893 5892 5891 5891 5891 5890 5890 5889 5888 5888 5887 5887 5887 5886 5885 5885 5884 5884 5883 5882 5881 5881 5880 5879 5878 5877
5905 5904 5903 5902 5902 5901 5900 5899 5899 5898 5898 5897 5896 5895 5895 5894 5893 5892 5892 5891 5890 5890 5889 5889 5888 5887 5887 5886 5886 5885 5884 5883 5883 5882 5881 5880 5879 5879 5878 5877 5876 5875 5873
5908 5907 5906 5904 5903 5903 5902 5901 5900 5900 5899 5898 5897 5896 5895 5894 5893 5892 5891 5890 5889 5889 5888 5887 5887 5886 5886 5885 5884 5883 5882 5882 5880 5879 5878 5877 5876 5875 5874 5873 5872 5871 5870
5910 5909 5908 5907 5905 5905 5904 5903 5902 5901 5900 5899 5898 5897 5895 5894 5892 5891 5891 5890 5889 5888 5887 5886 5885 5885 5884 5884 5883 5882 5881 5880 5878 5877 5876 5875 5873 5872 5871 5870 5869 5868 5867
5912 5911 5909 5908 5907 5906 5905 5904 5903 5902 5901 5900 5898 5897 5895 5894 5892 5891 5890 5889 5888 5887 5886 5885 5884 5883 5882 5881 5880 5879 5878 5877 5876 5875 5873 5872 5870 5869 5868 5866 5865 5864 5863
5914 5912 5911 5910 5909 5908 5907 5905 5904 5903 5902 5900 5899 5897 5895 5894 5892 5891 5889 5888 5887 5886 5884 5883 5882 5881 5880 5879 5878 5877 5876 5874 5873 5872 5871 5869 5867 5866 5864 5863 5861 5860 5859
5915 5914 5913 5912 5911 5909 5908 5907 5905 5904 5902 5901 5899 5897 5895 5894 5892 5890 5889 5887 5886 5885 5883 5882 5880 5879 5878 5877 5875 5874 5873 5872 5870 5869 5868 5866 5865 5863 5861 5859 5858 5856 5855